Regional Weather Roundup
Issued by NWS

Home | Current Version | Previous Version | Text Only | Print | Product List | Glossary Off
Versions: 1 2 3 4 5 6 7 8 9 10 11 12 13 14 15 16 17 18 19 20 21 22 23 24 25 26 27 28 29 30 31 32 33 34 35 36 37 38 39 40 41 42 43 44 45 46 47 48 49 50

000
ASUS43 KLSX 290707
RWRMO

WEATHER SUMMARY FOR MISSOURI
NATIONAL WEATHER SERVICE SPRINGFIELD MO
200 AM CDT SAT JUL 29 2017

NOTE: "FAIR" INDICATES FEW OR NO CLOUDS BELOW 12,000 FEET WITH NO
       SIGNIFICANT WEATHER AND/OR OBSTRUCTIONS TO VISIBILITY.
       CURRENT SKY AND/OR WEATHER CONDITIONS ARE NOT AVAILABLE FOR
       CHILLICOTHE AND FARMINGTON.

MOZ001>031-035>038-043-044-053-054-290800-
...NORTHERN AND WESTERN MISSOURI...

CITY           SKY/WX    TMP DP  RH WIND       PRES   REMARKS
KANSAS CTY INT MOCLDY    71  63  75 NE6       30.04F
KANSAS C DTWN  MOCLDY    75  62  64 NE5       30.02F
LEE`S SUMMIT   PTCLDY    71  62  73 NE7       30.04S
ST JOSEPH      PTCLDY    65  65 100 CALM      30.04F
CHILLICOTHE      N/A     65  64  97 CALM      30.06S
KIRKSVILLE     CLEAR     62  59  90 NE7       30.07R

$$
MOZ066>068-077>081-088>096-101>105-290800-
...SOUTHWEST MISSOURI...

CITY           SKY/WX    TMP DP  RH WIND       PRES   REMARKS
SPRINGFIELD    CLEAR     68  63  84 NE7       29.99S
JOPLIN         CLEAR     69  66  90 NE3       29.99S
BRANSON        CLEAR     68  61  77 CALM      29.99S

$$
MOZ032>034-039>042-045>050-055>058-069>072-290800-
...CENTRAL MISSOURI...

CITY           SKY/WX    TMP DP  RH WIND       PRES   REMARKS
COLUMBIA       CLEAR     67  62  84 NE7       30.02S
JEFFERSON CITY CLEAR     71  63  75 NE7       30.00S
ROLLA          CLEAR     66  64  93 NE6       30.01F
SEDALIA        PTCLDY    69  64  84 NE5       30.03S
WHITEMAN AFB   PTCLDY    66  66  99 NE3       30.01F
WARRENSBURG    PTCLDY    66  59  77 N3        30.02S
OSAGE BEACH    CLEAR     68  64  87 NE5       30.01S

$$
MOZ051-052-059>065-290800-
...EAST CENTRAL MISSOURI...

CITY           SKY/WX    TMP DP  RH WIND       PRES   REMARKS
ST LOUIS INTL  CLEAR     73  61  65 NE10      29.99S
SPIRIT OF STL  PTCLDY    71  64  78 NE6       29.98S
ST CHARLES     PTCLDY    69  63  81 NE12      29.99R

$$
MOZ072>076-082>087-097>100-106>115-290800-
...SOUTH CENTRAL AND SOUTHEAST MISSOURI...

CITY           SKY/WX    TMP DP  RH WIND       PRES   REMARKS
CAPE GIRARDEAU CLEAR     70  64  81 N5        29.92R
FARMINGTON     CLEAR     70  62  76 N6        29.98S
POPLAR BLUFF   CLEAR     73  67  81 N9        29.91S
WEST PLAINS    CLEAR     67  62  84 N7        29.98S

$$




USA.gov is the U.S. government's official web portal to all federal, state and local government web resources and services.